Weather History for Burns, OR

Change the Weather History Date:

Monday, July 15, 2013

  Actual Average Record
Temperature  
Mean Temperature 71 °F 67 °F  
Max Temperature 95 °F 86 °F 100 °F (2005)
Min Temperature 47 °F 48 °F 32 °F (1999)
Degree Days  
Heating Degree Days 0 2  
Month to date heating degree days 3 38  
Since 1 June heating degree days 191 256  
Since 1 July heating degree days 3 38  
Cooling Degree Days 6 4  
Month to date cooling degree days 107 42  
Year to date cooling degree days 162 65  
Since 1 June cooling degree days 161 62  
Growing Degree Days 20 (Base 50)    
Moisture  
Dew Point 36 °F    
Average Humidity 36    
Maximum Humidity 61    
Minimum Humidity 11    
Precipitation  
Precipitation 0.00 in 0.02 in 0.06 in (1964)
Month to date precipitation T 0.21  
Year to date precipitation 3.41 6.43  
Sea Level Pressure  
Sea Level Pressure 29.84 in    
Wind  
Wind Speed 6 mph (West)    
Max Wind Speed 14 mph    
Max Gust Speed 18 mph    
Visibility 10 miles    
Events      
T = Trace of Precipitation, MM = Missing Value Source: NWS Daily Summary

Daily Weather History Graph

Daily Weather History Graph

Search for Another Location

Airport:

Trip Planner

Search our weather history database for the weather conditions in past years. The results will help you decide how hot, cold, wet, or windy it might be!

Date:

Astronomy

Jul. 15, 2013 Rise Set
Actual Time 5:28 AM PDT 8:34 PM PDT
Civil Twilight 4:54 AM PDT 9:09 PM PDT
Nautical Twilight 4:09 AM PDT 9:53 PM PDT
Astronomical Twilight 3:16 AM PDT 10:46 PM PDT
Moon 1:09 PM PDT (7/15) No Moon Set
Length of Visible Light 16h 15m
Length of Day
15h 05m
Waxing Crescent, 46% of the Moon is Illuminated
Jul 15
Waxing Crescent
Jul 15
First Quarter
Jul 22
Full
Jul 29
Last Quarter
Aug 6
New

Hourly Weather History & Observations

Time (PDT) Temp. Dew Point Humidity Pressure Visibility Wind Dir Wind Speed Gust Speed Precip Events Conditions
12:53 AM 64.0 °F 35.1 °F 34% 29.91 in 10.0 mi West 10.4 mph - N/A   Clear
1:53 AM 64.9 °F 35.1 °F 33% 29.90 in 10.0 mi West 10.4 mph - N/A   Clear
2:53 AM 61.0 °F 36.0 °F 39% 29.90 in 10.0 mi West 9.2 mph - N/A   Clear
3:53 AM 55.9 °F 35.1 °F 45% 29.91 in 10.0 mi West 9.2 mph - N/A   Clear
4:53 AM 48.9 °F 34.0 °F 56% 29.93 in 10.0 mi NNW 3.5 mph - N/A   Clear
5:53 AM 48.9 °F 35.1 °F 59% 29.93 in 10.0 mi WSW 5.8 mph - N/A   Clear
6:53 AM 61.0 °F 37.9 °F 42% 29.91 in 10.0 mi South 3.5 mph - N/A   Clear
7:53 AM 69.1 °F 37.9 °F 32% 29.91 in 10.0 mi NNE 3.5 mph - N/A   Clear
8:53 AM 73.9 °F 39.0 °F 28% 29.92 in 10.0 mi Calm Calm - N/A   Clear
9:53 AM 77.0 °F 43.0 °F 30% 29.91 in 10.0 mi Variable 4.6 mph - N/A   Clear
10:53 AM 82.9 °F 39.0 °F 21% 29.88 in 10.0 mi East 5.8 mph - N/A   Clear
11:53 AM 84.9 °F 37.9 °F 19% 29.87 in 10.0 mi Variable 3.5 mph - N/A   Clear
12:53 PM 88.0 °F 34.0 °F 15% 29.85 in 10.0 mi ENE 4.6 mph - N/A   Clear
1:53 PM 90.0 °F 36.0 °F 15% 29.83 in 10.0 mi SE 4.6 mph - N/A   Clear
2:53 PM 91.9 °F 35.1 °F 13% 29.80 in 10.0 mi South 8.1 mph 16.1 mph N/A   Clear
3:53 PM 91.0 °F 30.9 °F 12% 29.79 in 10.0 mi SW 8.1 mph - N/A   Clear
4:53 PM 93.9 °F 30.9 °F 11% 29.78 in 10.0 mi South 8.1 mph - N/A   Clear
5:53 PM 93.0 °F 32.0 °F 12% 29.76 in 10.0 mi Variable 5.8 mph - N/A   Clear
6:53 PM 87.1 °F 34.0 °F 15% 29.74 in 10.0 mi North 3.5 mph - N/A   Clear
7:53 PM 87.1 °F 37.0 °F 17% 29.72 in 10.0 mi West 3.5 mph - N/A   Clear
8:53 PM 78.1 °F 39.0 °F 25% 29.74 in 10.0 mi NNW 12.7 mph - N/A   Clear
9:53 PM 77.0 °F 39.9 °F 26% 29.76 in 10.0 mi North 9.2 mph 16.1 mph N/A   Clear
10:53 PM 75.0 °F 37.9 °F 26% 29.77 in 10.0 mi Variable 3.5 mph - N/A   Clear
11:53 PM 66.9 °F 39.0 °F 36% 29.78 in 10.0 mi West 9.2 mph - N/A   Clear